Flag for Germany Weather past 2 weeks in Erfurt, Thuringia, Germany

Now
39 °F

Broken clouds.


Feels Like: 31 °F
Forecast: 35 / 44 °F
Wind: 15 mph from Northwest

Location: Erfurt-Bindersleben

Current Time: Mar 5, 2015 at 12:03:00 PM

Latest Report: Mar 5, 2015 at 11:20 AM


Visibility: N/A

Pressure: 30.51 "Hg

Humidity: 81%

Dew point: 34 °F

Location of ErfurtLocation

Historic Weather in Erfurt — Graph

°F

Erfurt temperature yesterday

Maximum temperature yesterday: 41 °F (at 2:20 PM)
Minimum temperature yesterday: 30 °F (at 6:50 AM)
Average temperature yesterday: 36 °F

Past Weeks' High & Low Weather Summary

 TemperatureHumidityPressure
High48 °F (Feb 21, 1:20 PM)100% (Feb 18, 10:50 PM)30.72 "Hg (Feb 18, 10:50 PM)
Low23 °F (Feb 19, 4:50 AM)43% (Feb 26, 1:50 PM)29.39 "Hg (Feb 23, 3:50 PM)
Average36 °F81%29.92 "Hg
* Reported Feb 18 10:20 AM — Mar 5 10:50 AM, Erfurt, Weather by CustomWeather, © 2015

Note: Actual official high and low records may vary slightly from our data, if they occured in-between our weather recording intervals... More about our weather records

Advertising

Erfurt weather history for previous 24 hours

 ConditionsComfort  
Time TempWeatherWind HumidityBarometerVisibility
10:50 AM
Thu, Mar 5
39 °FBroken clouds.14 mph81%30.54 "HgN/A
10:20 AM37 °FBroken clouds.12 mph81%30.54 "HgN/A
9:50 AM37 °FScattered clouds.13 mph75%30.51 "HgN/A
9:20 AM36 °FPartly sunny.13 mph81%30.51 "HgN/A
8:50 AM36 °FScattered clouds.10 mph87%30.51 "HgN/A
8:20 AM34 °FPartly sunny.9 mph87%30.51 "HgN/A
7:50 AM34 °FScattered clouds.10 mph87%30.48 "HgN/A
7:20 AM34 °FScattered clouds.13 mph87%30.48 "HgN/A
6:50 AM34 °FPassing clouds.15 mph87%30.48 "HgN/A
6:20 AM34 °FPassing clouds.20 mph87%30.45 "HgN/A
5:50 AM34 °FPassing clouds.17 mph87%30.42 "HgN/A
5:20 AM34 °FPassing clouds.17 mph93%30.42 "HgN/A
4:20 AM36 °FSprinkles. Passing clouds.18 mph87%30.39 "HgN/A
3:50 AM36 °FPassing clouds.14 mph87%30.36 "HgN/A
2:50 AM34 °FSprinkles. Passing clouds.14 mph100%30.36 "HgN/A
2:20 AM34 °FSprinkles. Passing clouds.14 mph100%30.33 "HgN/A
1:50 AM34 °FPassing clouds.14 mph93%30.33 "HgN/A
1:20 AM34 °FPassing clouds.15 mph100%30.33 "HgN/A
12:50 AM34 °FSprinkles. Passing clouds.16 mph100%30.30 "HgN/A
12:20 AM34 °FSnow flurries. Passing clouds.15 mph100%30.30 "HgN/A
11:50 PM
Wed, Mar 4
34 °FSprinkles. Passing clouds.13 mph93%30.30 "HgN/A
11:20 PM34 °FSprinkles. Passing clouds.13 mph93%30.30 "HgN/A
10:20 PM36 °FPassing clouds.12 mph87%30.27 "HgN/A
9:50 PM36 °FPassing clouds.14 mph87%30.27 "HgN/A
9:20 PM36 °FPassing clouds.13 mph87%30.27 "HgN/A
8:50 PM36 °FClear.9 mph87%30.24 "Hg10 mi
8:20 PM34 °FClear.9 mph93%30.24 "Hg10 mi
7:50 PM34 °FSnow flurries. Passing clouds.12 mph100%30.24 "HgN/A
7:20 PM36 °FSnow flurries. Passing clouds.9 mph87%30.24 "HgN/A
6:50 PM37 °FClear.10 mph70%30.24 "Hg10 mi
6:20 PM37 °FClear.9 mph75%30.24 "Hg10 mi
5:50 PM39 °FSunny.9 mph70%30.21 "Hg10 mi
5:20 PM39 °FSunny.9 mph70%30.21 "Hg10 mi
4:50 PM39 °FBroken clouds.14 mph75%30.21 "HgN/A
4:20 PM39 °FSprinkles. Broken clouds.16 mph70%30.21 "HgN/A
3:50 PM41 °FScattered showers. Broken clouds.16 mph70%30.21 "HgN/A
3:20 PM39 °FSprinkles. Broken clouds.13 mph70%30.21 "HgN/A
2:50 PM41 °FBroken clouds.15 mph66%30.21 "HgN/A
2:20 PM41 °FPartly sunny.17 mph70%30.21 "HgN/A
1:50 PM39 °FPartly sunny.17 mph70%30.21 "HgN/A
1:20 PM39 °FPartly sunny.18 mph75%30.21 "HgN/A
12:50 PM39 °FPartly sunny.21 mph70%30.21 "HgN/A
12:20 PM39 °FPartly sunny.15 mph70%30.21 "HgN/A
Weather by CustomWeather, © 2015

See weather overviewHow to use our weather pages